STARLINK-5715 (55613 NORAD) Tracking and Keplerian Element Data

This shows tracking and keplerian element data for the satellite.

Feedback or suggestion? Click here.




ElementValue
Catalog55613
NameSTARLINK-5715
Epoch Orbit660
Epoch Day85.25001157
Epoch Year2023
RAAN103.8501
Inclination42.9981
Eccentricity0.0001341
Argument of Perigee270.3466
Mean Anonmoly99.917
Mean Motion15.48931512
Decay Rate-0.00055732
L11 55613U 23020AW 23085.25001157 -.00055732 00000+0 -10082-2 0 9992
L22 55613 42.9981 103.8501 0001341 270.3466 99.9170 15.48931512 6606



Live tracking and technical data element details for STARLINK-5715 (NORAD 55613). STARLINK-5715 can be tracked NOW for your location showing map with azimuth and elevation plus other details from your city location.







IsCatalogInMostPopularTable: catalog: 55613, numindb: -1

Insert: records affected: 1


GetName: 55613 STARLINK-5715

Hit Count: inserted at: Tue, 28 Mar 2023 03:27:55 GMT